{"data":{"norad_id":63422,"intl_designator":"2025-065Z","name":"STARLINK-33686","alt_names":[],"object_type":"PAYLOAD","status":"ACTIVE","operator":null,"country":"US","launch_date":"2025-03-31","launch_site_code":"AFETR","launch_vehicle":null,"mission":null,"orbit_class":"UNKNOWN","rcs_meters":null,"size_class":null,"mass_kg":null,"dimensions":null,"purposes":["comms"],"wikipedia_slug":null,"has_3d_model":false,"image_url":null,"decayed_at":null,"tle_current":{"epoch":"2026-05-25T00:38:16.944864Z","epoch_age_seconds":73065,"freshness":"FRESH","line1":"1 63422U 25065Z   26145.02658501  .00014730  00000+0  54348-3 0  9991","line2":"2 63422  43.0025  35.9980 0001397 278.0384  82.0309 15.27594859 64512","mean_motion":15.27594859,"eccentricity":0.0001397,"inclination_deg":43.0025,"raan_deg":35.998,"arg_perigee_deg":278.0384,"mean_anomaly_deg":82.0309,"bstar":0.00054348,"rev_number":6451,"period_min":94.265831775754,"perigee_km":482.04610172684,"apogee_km":483.96310469078,"semimajor_km":6861.1416032088,"source":"CELESTRAK","updated_at":"2026-05-25T13:38:19.973754Z"}}}